Погода в Малоархангельске

Россия / Орловская область     52°24′03″N   36°30′07″E
темп.,
°C
ветер,
м/с
пор.,
м/с
влажн.,
%
обл.,
%
осадки,
мм/ч
давл.,
гПа
погр.,
м
28 ноября, вс
вс2800:00+4ю51298100 0.0 1003308
03:00+4ююз51298100 0.0 1004345
06:00+5юз499889 0.0 1004275
09:00+3юз379825 0.0 1006153
12:00+5зюз368274 0.0 1008272
15:00+5ю248131 0.0 1008139
18:00+3ююв3596100 0.0 100989
21:00+3ююв51197100 0.0 1009266
29 ноября, пн
пн2900:00+4юв41193100 0.0 1008277
03:00+4юв41096100 0.0 1006225
06:00+4вюв51098100 0.0 1003231
09:00+5в51198100 1.6 1000353
12:00+6ююв41099100 0.3 997348
15:00+7ю51197100 0.4 996488
18:00+8ююв51295100 0.0 993486
21:00+7вюв61396100 0.6 988485
30 ноября, вт
вт3000:00+9юв71697100 9.2 980817
03:00+8ююз132091100 14.1 9771289
06:00+4юз142094100 8.0 980914
09:00+1зюз142396100 14.4 9851121
12:00+1зюз132084100 0.8 9891117
15:00+1зюз111881100 0.8 9901157
18:00+1юз9168392 0.0 9911236
21:000юз8149294 0.2 9921041
1 декабря, ср
ср100:00−1зюз91380100 0.1 9911055
03:00−2зюз8128699 0.2 993982
06:00−2з8139099 0.2 9921102
09:00−3з81294100 0.9 9951039
12:00−3з81294100 1.5 996978
15:00−3з81287100 2.2 997946
18:00−4з71285100 0.1 1000819
21:00−4з6128999 0.1 1002661
2 декабря, чт
чт200:00−5з5119188 0.0 1003539
03:00−6зюз499392 0.0 1005347
06:00−5юз3894100 0.0 1006284
09:00−4ю51288100 0.0 1005474
12:00−2ююз81696100 0.5 1004691
15:000юз81597100 1.4 1003653
18:00+1юз7158985 0.1 1004532
21:00+1юз61589100 0.1 1005454